Location: Unspecified
(0.0000°N, 0.0000°E)
Time: 20:32:13
(UTC+00:00)

AAUSAT CUBESAT 2 - Visible Passes

Search period start: 19 October 2019 00:00
Search period end: 29 October 2019 00:00
Orbit: 574 x 591 km, 97.5° (Epoch: 18 October)

Date Brightness Start Highest point End Pass type
(mag) Time Alt. Az. Time Alt. Az. Time Alt. Az.
19 Oct ? 18:03:27 10° SSE 18:07:33 56° ENE 18:11:36 10° N visible
20 Oct ? 18:09:12 10° SSE 18:13:22 70° ENE 18:17:28 10° N visible
21 Oct ? 18:15:00 10° SSE 18:19:10 87° E 18:23:19 10° N visible
22 Oct ? 18:20:49 10° S 18:24:59 76° W 18:29:07 10° NNW visible
23 Oct ? 18:26:41 10° S 18:30:48 61° W 18:34:52 10° NNW visible
24 Oct ? 18:32:34 10° S 18:36:36 48° WSW 18:40:36 10° NNW visible
25 Oct ? 18:38:31 10° S 18:42:25 39° WSW 18:46:17 10° NNW visible
26 Oct ? 18:44:30 10° SSW 18:48:13 32° WSW 18:51:54 10° NW visible
27 Oct ? 18:50:32 10° SSW 18:54:01 26° WSW 18:57:30 10° NW visible
28 Oct ? 18:56:38 10° SSW 18:59:50 22° WSW 19:03:01 10° NW visible
